GW1885 Weather Reports


Display with metric or nautical units.
time (UTC)temp
F
wind
direction
speed
MPH
gust
MPH
rain 1hr
in
rain 24hr
in
rain mn
in
humidity
%
barometer
mb
20260901010005 60 133 2.0 3.0 0.00 0.00 0.00 95 1009.5
20260901005525 60 131 2.0 3.0 0.00 0.00 0.00 95 1009.4
20260901005005 60 133 2.0 4.0 0.00 0.00 0.00 95 1009.5
20260901004526 60 137 3.0 4.0 0.00 0.00 0.00 96 1009.5
20260901004005 60 134 3.0 6.0 0.00 0.00 0.00 96 1009.6
20260901003504 60 125 3.0 6.0 0.00 0.00 0.00 96 1009.5
20260901003026 60 129 3.0 6.0 0.00 0.00 0.00 97 1009.5
20260901002504 60 182 2.0 4.0 0.00 0.00 0.00 97 1009.5
20260901002026 60 212 2.0 3.0 0.00 0.00 0.00 97 1009.5
20260901001504 60 213 1.0 3.0 0.00 0.00 0.00 97 1009.4
20260901001004 60 213 1.0 2.0 0.00 0.00 0.00 97 1009.4
20260901000525 60 213 1.0 2.0 0.00 0.00 0.00 97 1009.3
20260901000005 60 213 1.0 2.0 0.00 0.00 0.00 97 1009.1
20260831235526 60 213 1.0 2.0 0.00 0.00 0.00 97 1009.2
20260831235005 60 213 1.0 2.0 0.00 0.00 0.00 97 1009.2
20260831234504 60 213 1.0 2.0 0.00 0.00 0.00 97 1009.2
20260831234004 60 213 1.0 3.0 0.00 0.00 0.00 97 1009.3
20260831233504 60 213 1.0 3.0 0.00 0.00 0.00 97 1009.3
20260831233005 60 213 1.0 3.0 0.00 0.00 0.00 97 1009.4
20260831232504 60 213 1.0 3.0 0.00 0.00 0.00 97 1009.5
20260831232005 60 213 1.0 2.0 0.00 0.00 0.00 97 1009.6
20260831231505 60 213 1.0 2.0 0.00 0.00 0.00 97 1009.6
20260831231004 60 213 2.0 3.0 0.00 0.00 0.00 97 1009.5
20260831230505 60 213 2.0 3.0 0.00 0.00 0.00 97 1009.6
20260831230005 60 213 1.0 2.0 0.00 0.00 0.00 96 1009.6
20260831225504 60 213 1.0 2.0 0.00 0.00 0.00 96 1009.4
20260831225004 61 213 1.0 2.0 0.00 0.00 0.00 96 1009.5
20260831224504 61 213 1.0 2.0 0.00 0.00 0.00 96 1009.5
20260831224004 61 213 1.0 2.0 0.00 0.00 0.00 96 1009.5
20260831223504 60 213 1.0 2.0 0.00 0.00 0.00 96 1009.6
20260831223005 60 213 1.0 2.0 0.00 0.00 0.00 96 1009.6
20260831222505 60 215 1.0 3.0 0.00 0.00 0.00 96 1009.8
20260831222005 60 260 2.0 3.0 0.00 0.00 0.00 96 1010.1
20260831221504 60 311 1.0 2.0 0.00 0.00 0.00 96 1010.0
20260831221005 59 311 1.0 2.0 0.00 0.00 0.00 95 1010.1
20260831220504 60 311 1.0 2.0 0.00 0.00 0.00 95 1010.1
20260831220006 60 311 1.0 1.0 0.00 0.00 0.00 95 1010.3
20260831215505 60 311 0.0 1.0 0.00 0.00 0.00 95 1010.2
20260831215005 60 311 0.0 1.0 0.00 0.00 0.00 94 1010.2
20260831214526 61 311 0.0 1.0 0.00 0.00 0.00 94 1010.2
20260831214005 61 311 0.0 1.0 0.00 0.00 0.00 93 1010.2
20260831213505 61 311 0.0 1.0 0.00 0.00 0.00 93 1010.1
20260831213005 62 311 0.0 1.0 0.00 0.00 0.00 92 1010.2
20260831212505 62 311 0.0 1.0 0.00 0.00 0.00 92 1010.3
20260831212005 62 311 0.0 1.0 0.00 0.00 0.00 91 1010.4
20260831211505 63 311 1.0 1.0 0.00 0.00 0.00 90 1010.3
20260831211005 63 311 1.0 1.0 0.00 0.00 0.00 90 1010.3
20260831210504 64 311 1.0 1.0 0.00 0.00 0.00 90 1010.4
20260831210004 64 297 1.0 1.0 0.00 0.00 0.00 90 1010.2
20260831205505 64 238 1.0 3.0 0.00 0.00 0.00 89 1010.4
20260831205004 64 260 2.0 7.0 0.00 0.00 0.00 90 1010.2
20260831204504 63 269 2.0 7.0 0.00 0.00 0.00 94 1010.4
20260831204004 62 231 1.0 6.0 0.00 0.00 0.00 94 1010.2
20260831203504 62 164 1.0 3.0 0.00 0.00 0.00 94 1010.3
20260831203005 62 139 1.0 4.0 0.00 0.00 0.00 94 1009.9
20260831202526 62 130 1.0 4.0 0.00 0.00 0.00 94 1009.8
20260831202005 62 120 1.0 4.0 0.00 0.00 0.00 94 1009.6
20260831201504 62 119 1.0 2.0 0.00 0.00 0.00 94 1009.9
20260831201004 61 119 1.0 2.0 0.00 0.00 0.00 94 1009.8
20260831200504 61 119 1.0 2.0 0.00 0.00 0.00 94 1010.0
20260831200004 61 118 1.0 2.0 0.00 0.00 0.00 94 1010.0
20260831195525 61 118 1.0 2.0 0.00 0.00 0.00 94 1010.2
20260831195005 62 117 1.0 3.0 0.00 0.00 0.00 93 1009.9
20260831194504 62 117 2.0 3.0 0.00 0.00 0.00 93 1010.2
20260831194005 62 117 2.0 3.0 0.00 0.00 0.00 92 1010.1
20260831193504 62 117 2.0 3.0 0.00 0.00 0.00 92 1010.1
20260831193005 62 116 2.0 3.0 0.00 0.00 0.00 92 1010.3
20260831192504 62 117 2.0 3.0 0.00 0.00 0.00 92 1010.2
20260831192004 62 118 2.0 4.0 0.00 0.00 0.00 92 1010.2
20260831191504 62 117 2.0 4.0 0.00 0.00 0.00 92 1010.1
20260831191005 62 116 1.0 4.0 0.00 0.00 0.00 92 1010.1
20260831190505 62 116 1.0 2.0 0.00 0.00 0.00 92 1010.0
20260831190005 62 115 1.0 2.0 0.00 0.00 0.00 91 1010.1
20260831185505 62 116 2.0 3.0 0.00 0.00 0.00 91 1010.0
20260831185004 62 115 2.0 3.0 0.00 0.00 0.00 91 1010.2
20260831184504 62 114 1.0 2.0 0.00 0.00 0.00 90 1010.1
20260831184004 62 114 1.0 2.0 0.00 0.00 0.00 90 1010.1
20260831183504 63 114 1.0 2.0 0.00 0.00 0.00 90 1010.1
20260831183004 63 114 1.0 2.0 0.00 0.00 0.00 90 1010.2
20260831182504 63 114 1.0 2.0 0.00 0.00 0.00 90 1010.2
20260831182025 63 114 0.0 1.0 0.00 0.00 0.00 90 1010.3
20260831181504 63 114 0.0 1.0 0.00 0.00 0.00 90 1010.2
20260831181025 63 114 0.0 1.0 0.00 0.00 0.00 90 1010.1
20260831180505 63 114 0.0 1.0 0.00 0.00 0.00 89 1010.0
20260831180004 63 114 1.0 3.0 0.00 0.00 0.00 88 1010.1
20260831175504 64 114 1.0 3.0 0.00 0.00 0.00 88 1009.8
20260831175005 64 114 1.0 3.0 0.00 0.00 0.00 87 1009.9
20260831174504 64 115 1.0 2.0 0.00 0.00 0.00 87 1009.8
20260831174004 65 117 1.0 3.0 0.00 0.00 0.00 86 1009.6
20260831173505 65 120 2.0 3.0 0.00 0.00 0.00 85 1009.8
20260831173005 64 121 2.0 3.0 0.00 0.00 0.00 86 1009.8
20260831172504 64 121 1.0 2.0 0.00 0.00 0.00 87 1009.6
20260831172004 65 121 0.0 2.0 0.00 0.00 0.00 87 1009.7
20260831171503 65 120 0.0 1.0 0.00 0.00 0.00 85 1009.8
20260831171004 66 0 0.0 0.0 0.00 0.00 0.00 84 1009.7
20260831170504 66 120 0.0 1.0 0.00 0.00 0.00 83 1009.6
20260831170005 66 121 1.0 2.0 0.00 0.00 0.00 82 1009.6
20260831165524 67 121 1.0 2.0 0.00 0.00 0.00 80 1009.7
20260831165005 67 121 1.0 3.0 0.00 0.00 0.00 80 1009.7
20260831164524 67 121 1.0 3.0 0.00 0.00 0.00 78 1009.8
20260831164004 67 121 2.0 3.0 0.00 0.00 0.00 79 1009.8
20260831163503 67 121 2.0 3.0 0.00 0.00 0.00 77 1009.9
20260831163005 67 120 2.0 4.0 0.00 0.00 0.00 78 1009.8
20260831162504 68 126 2.0 4.0 0.00 0.00 0.00 78 1010.0
20260831162004 68 140 2.0 4.0 0.00 0.00 0.00 76 1009.9
20260831161526 68 144 3.0 6.0 0.00 0.00 0.00 75 1009.9
20260831161004 69 131 3.0 6.0 0.00 0.00 0.00 74 1010.0
20260831160503 69 134 3.0 7.0 0.00 0.00 0.00 74 1010.1
20260831160004 69 138 4.0 7.0 0.00 0.00 0.00 74 1010.2
20260831155504 69 129 4.0 7.0 0.00 0.00 0.00 76 1009.9
20260831155003 69 130 4.0 7.0 0.00 0.00 0.00 75 1010.0
20260831154504 69 132 4.0 7.0 0.00 0.00 0.00 75 1010.1
20260831154004 69 131 4.0 7.0 0.00 0.00 0.00 74 1010.2
20260831153505 69 129 4.0 7.0 0.00 0.00 0.00 74 1010.0
20260831153004 69 132 3.0 7.0 0.00 0.00 0.00 76 1010.3
20260831152504 69 129 2.0 7.0 0.00 0.00 0.00 74 1010.3
20260831152005 70 118 1.0 4.0 0.00 0.00 0.00 75 1010.1
20260831151505 70 127 1.0 4.0 0.00 0.00 0.00 76 1010.1
20260831151004 70 135 0.0 3.0 0.00 0.00 0.00 75 1010.2
20260831150505 70 114 1.0 3.0 0.00 0.00 0.00 77 1010.2
20260831150005 70 104 1.0 3.0 0.00 0.00 0.00 73 1010.3
20260831145525 70 102 1.0 3.0 0.00 0.00 0.00 76 1010.2
20260831145005 70 102 1.0 3.0 0.00 0.00 0.00 73 1010.3
20260831144505 70 105 2.0 7.0 0.00 0.00 0.00 75 1010.3
20260831144004 70 107 2.0 7.0 0.00 0.00 0.00 74 1010.4
20260831143503 70 118 3.0 9.0 0.00 0.00 0.00 73 1010.6
20260831143004 70 125 3.0 9.0 0.00 0.00 0.00 75 1010.5
20260831142504 70 114 2.0 4.0 0.00 0.00 0.00 76 1010.5
20260831142005 70 102 2.0 6.0 0.00 0.00 0.00 75 1010.5
20260831141503 70 112 3.0 7.0 0.00 0.00 0.00 74 1010.5
20260831141004 70 115 3.0 7.0 0.00 0.00 0.00 76 1010.5
20260831140505 69 118 3.0 7.0 0.00 0.00 0.00 76 1010.5
20260831140004 69 128 3.0 8.0 0.00 0.00 0.00 78 1010.6
20260831135504 69 130 4.0 8.0 0.00 0.00 0.00 79 1010.6
20260831135004 69 132 3.0 8.0 0.00 0.00 0.00 80 1010.7
20260831134503 69 135 2.0 4.0 0.00 0.00 0.00 82 1010.6
20260831134004 68 129 2.0 4.0 0.00 0.00 0.00 83 1010.7
20260831133524 68 114 2.0 4.0 0.00 0.00 0.00 80 1010.6
20260831133004 69 107 2.0 4.0 0.00 0.00 0.00 80 1010.9
20260831132503 69 108 2.0 4.0 0.00 0.00 0.00 80 1010.8
20260831132025 69 104 2.0 6.0 0.00 0.00 0.00 80 1010.8
20260831131504 69 97 2.0 6.0 0.00 0.00 0.00 81 1010.7
20260831131004 69 97 3.0 7.0 0.00 0.00 0.00 79 1010.9
20260831130525 69 105 3.0 8.0 0.00 0.00 0.00 78 1010.9
20260831130004 70 112 3.0 8.0 0.00 0.00 0.00 77 1010.9
20260831125525 70 115 3.0 7.0 0.00 0.00 0.00 76 1010.9
20260831125003 70 110 3.0 7.0 0.00 0.00 0.00 76 1010.8
20260831124524 71 103 2.0 6.0 0.00 0.00 0.00 76 1010.8
20260831124004 70 117 3.0 11.0 0.00 0.00 0.00 76 1010.9
20260831123524 70 123 3.0 11.0 0.00 0.00 0.00 77 1010.9
20260831123024 70 120 3.0 7.0 0.00 0.00 0.00 83 1010.9
20260831122504 69 122 4.0 8.0 0.00 0.00 0.00 80 1010.9
20260831122003 69 124 4.0 9.0 0.00 0.00 0.00 81 1011.0
20260831121503 70 123 4.0 10.0 0.00 0.00 0.00 79 1010.8
20260831121004 70 123 4.0 10.0 0.00 0.00 0.00 79 1010.8
20260831120503 70 125 3.0 8.0 0.00 0.00 0.00 79 1010.8
20260831120004 69 127 4.0 9.0 0.00 0.00 0.00 80 1010.7
20260831115504 69 121 4.0 9.0 0.00 0.00 0.00 81 1010.8
20260831115005 69 122 4.0 11.0 0.00 0.00 0.00 79 1011.0
20260831114525 70 128 5.0 11.0 0.00 0.00 0.00 80 1011.0
20260831114004 70 127 4.0 9.0 0.00 0.00 0.00 78 1011.0
20260831113504 70 131 4.0 8.0 0.00 0.00 0.00 80 1010.9
20260831113004 70 133 4.0 8.0 0.00 0.00 0.00 78 1010.9
20260831112525 70 127 4.0 8.0 0.00 0.00 0.00 80 1011.0
20260831112005 70 130 4.0 9.0 0.00 0.00 0.00 77 1011.0
20260831111504 70 132 5.0 13.0 0.00 0.00 0.00 79 1011.0
20260831111004 70 130 4.0 13.0 0.00 0.00 0.00 78 1011.0
20260831110503 69 126 3.0 7.0 0.00 0.00 0.00 81 1010.9
20260831110004 69 122 4.0 9.0 0.00 0.00 0.00 80 1011.0
20260831105524 69 127 4.0 9.0 0.00 0.00 0.00 79 1011.3
20260831105003 69 130 4.0 9.0 0.00 0.00 0.00 81 1011.2
20260831104504 69 131 4.0 11.0 0.00 0.00 0.00 81 1011.0
20260831104025 69 136 4.0 11.0 0.00 0.00 0.00 79 1010.8
20260831103504 69 138 4.0 11.0 0.00 0.00 0.00 79 1010.8
20260831103005 69 132 4.0 9.0 0.00 0.00 0.00 80 1010.9
20260831102525 69 131 4.0 8.0 0.00 0.00 0.00 79 1010.8
20260831102004 69 126 3.0 8.0 0.00 0.00 0.00 79 1010.8
20260831101503 69 122 3.0 8.0 0.00 0.00 0.00 80 1011.0
20260831101003 68 130 3.0 8.0 0.00 0.00 0.00 82 1011.0
20260831100503 68 130 4.0 9.0 0.00 0.00 0.00 81 1010.9
20260831100005 68 125 4.0 9.0 0.00 0.00 0.00 82 1010.9
20260831095504 68 124 3.0 8.0 0.00 0.00 0.00 82 1011.0
20260831095004 67 119 2.0 6.0 0.00 0.00 0.00 82 1011.2
20260831094504 67 122 3.0 6.0 0.00 0.00 0.00 83 1011.0
20260831094025 67 126 3.0 8.0 0.00 0.00 0.00 84 1011.2
20260831093503 66 127 3.0 13.0 0.00 0.00 0.00 85 1011.4
20260831093003 66 128 4.0 13.0 0.00 0.00 0.00 85 1011.5
20260831092503 66 131 4.0 10.0 0.00 0.00 0.00 84 1011.6
20260831092004 66 137 6.0 11.0 0.00 0.00 0.00 83 1011.5
20260831091504 67 140 5.0 11.0 0.00 0.00 0.00 83 1011.5
20260831091003 67 134 3.0 8.0 0.00 0.00 0.00 84 1011.3
20260831090504 67 128 3.0 7.0 0.00 0.00 0.00 84 1011.2
20260831090003 67 130 3.0 8.0 0.00 0.00 0.00 85 1011.3
20260831085503 67 134 4.0 9.0 0.00 0.00 0.00 85 1011.3
20260831085004 67 135 4.0 9.0 0.00 0.00 0.00 84 1011.4
20260831084504 67 132 3.0 7.0 0.00 0.00 0.00 85 1011.2
20260831084004 67 133 3.0 7.0 0.00 0.00 0.00 85 1011.3
20260831083524 67 136 3.0 8.0 0.00 0.00 0.00 87 1011.3
20260831083005 67 137 4.0 8.0 0.00 0.00 0.00 86 1011.2
20260831082504 67 139 3.0 8.0 0.00 0.00 0.00 87 1011.3
20260831082005 66 141 3.0 8.0 0.00 0.00 0.00 89 1011.4
20260831081504 66 134 4.0 8.0 0.00 0.00 0.00 88 1011.4
20260831081004 66 129 3.0 7.0 0.00 0.00 0.00 87 1011.5
20260831080524 66 133 3.0 6.0 0.00 0.00 0.00 87 1011.5
20260831080004 66 138 3.0 7.0 0.00 0.00 0.00 87 1011.2
20260831075504 66 131 3.0 7.0 0.00 0.00 0.00 88 1011.4
20260831075005 65 130 3.0 6.0 0.00 0.00 0.00 89 1011.3
20260831074504 65 134 3.0 4.0 0.00 0.00 0.00 89 1011.3
20260831074005 65 134 4.0 7.0 0.00 0.00 0.00 89 1011.4
20260831073526 65 132 4.0 7.0 0.00 0.00 0.00 88 1011.5
20260831073006 65 134 3.0 6.0 0.00 0.00 0.00 90 1011.4
20260831072527 65 134 3.0 7.0 0.00 0.00 0.00 90 1011.4
20260831072026 65 134 3.0 7.0 0.00 0.00 0.00 90 1011.3
20260831071504 64 135 3.0 7.0 0.00 0.00 0.00 90 1011.4
20260831071025 64 136 2.0 6.0 0.00 0.00 0.00 91 1011.4
20260831070525 64 136 2.0 6.0 0.00 0.00 0.00 91 1011.4
20260831070006 64 132 2.0 4.0 0.00 0.00 0.00 92 1011.4
20260831065525 64 130 2.0 4.0 0.00 0.00 0.00 92 1011.4
20260831065005 64 133 2.0 6.0 0.00 0.00 0.00 93 1011.4
20260831064504 64 132 2.0 7.0 0.00 0.00 0.00 93 1011.3
20260831064005 64 133 2.0 7.0 0.00 0.00 0.00 93 1011.4
20260831063525 64 133 2.0 4.0 0.00 0.00 0.00 94 1011.2
20260831063006 64 127 2.0 4.0 0.00 0.00 0.00 94 1011.3
20260831062505 63 128 2.0 6.0 0.00 0.00 0.00 95 1011.2
20260831062004 63 126 2.0 7.0 0.00 0.00 0.00 96 1011.3
20260831061505 63 119 2.0 7.0 0.00 0.00 0.00 97 1011.3
20260831061004 62 116 1.0 3.0 0.00 0.00 0.00 98 1011.2
20260831060505 62 116 1.0 2.0 0.00 0.00 0.00 98 1011.5
20260831060005 62 116 1.0 2.0 0.00 0.00 0.00 99 1011.4
20260831055505 62 116 2.0 4.0 0.00 0.00 0.00 99 1011.2
20260831055026 61 115 2.0 4.0 0.00 0.00 0.00 99 1011.5
20260831054505 61 115 2.0 4.0 0.00 0.00 0.00 99 1011.5
20260831054004 61 114 2.0 4.0 0.00 0.00 0.00 99 1011.6
20260831053504 61 113 1.0 4.0 0.00 0.00 0.00 99 1011.5
20260831053004 61 112 1.0 2.0 0.00 0.00 0.00 99 1011.6
20260831052504 61 112 1.0 2.0 0.00 0.00 0.00 99 1011.4
20260831052005 60 112 1.0 2.0 0.00 0.00 0.00 99 1011.4
20260831051505 60 112 1.0 2.0 0.00 0.00 0.00 99 1011.3
20260831051026 60 112 1.0 1.0 0.00 0.00 0.00 99 1011.3
20260831050505 60 112 1.0 1.0 0.00 0.00 0.00 99 1011.3
20260831050004 59 111 1.0 3.0 0.00 0.00 0.00 99 1011.4
20260831045505 59 111 2.0 3.0 0.00 0.00 0.00 99 1011.2
20260831045004 59 111 2.0 3.0 0.00 0.00 0.00 99 1011.5
20260831044504 58 111 1.0 2.0 0.00 0.00 0.00 99 1011.3
20260831044004 58 111 1.0 2.0 0.00 0.00 0.00 99 1011.2
20260831043526 58 111 1.0 2.0 0.00 0.00 0.00 99 1011.4
20260831043004 58 111 1.0 2.0 0.00 0.00 0.00 99 1011.5
20260831042526 58 111 1.0 3.0 0.00 0.00 0.00 99 1011.5
20260831042005 58 110 1.0 3.0 0.00 0.00 0.00 99 1011.2
20260831041504 58 108 1.0 2.0 0.00 0.00 0.00 99 1011.4
20260831041005 57 108 1.0 2.0 0.00 0.00 0.00 99 1011.5
20260831040504 57 108 1.0 2.0 0.00 0.00 0.00 99 1011.4
20260831040026 57 108 1.0 3.0 0.00 0.00 0.00 99 1011.4
20260831035525 57 108 2.0 3.0 0.00 0.00 0.00 99 1011.3
20260831035005 57 108 2.0 2.0 0.00 0.00 0.00 99 1011.3
20260831034505 57 108 2.0 2.0 0.00 0.00 0.00 99 1011.3
20260831034026 57 108 2.0 3.0 0.00 0.00 0.00 99 1011.1
20260831033504 57 107 2.0 3.0 0.00 0.00 0.00 99 1011.4
20260831033005 57 109 2.0 3.0 0.00 0.00 0.00 99 1011.4
20260831032505 57 111 2.0 3.0 0.00 0.00 0.00 99 1011.3
20260831032005 57 112 1.0 3.0 0.00 0.00 0.00 99 1011.3
20260831031504 57 112 1.0 3.0 0.00 0.00 0.00 99 1011.4
20260831031004 58 112 2.0 3.0 0.00 0.00 0.00 99 1011.4
20260831030504 58 114 2.0 4.0 0.00 0.00 0.00 99 1011.4
20260831030004 57 110 2.0 4.0 0.00 0.00 0.00 99 1011.5
20260831025504 57 104 2.0 4.0 0.00 0.00 0.00 99 1011.5
20260831025004 57 104 2.0 3.0 0.00 0.00 0.00 99 1011.6
20260831024504 57 103 2.0 3.0 0.00 0.00 0.00 99 1011.5
20260831024005 57 102 2.0 4.0 0.00 0.00 0.00 98 1011.6
20260831023504 57 100 2.0 4.0 0.00 0.00 0.00 99 1011.3
20260831023004 56 99 2.0 3.0 0.00 0.00 0.00 98 1011.4
20260831022505 56 91 2.0 3.0 0.00 0.00 0.00 98 1011.4
20260831022005 57 82 1.0 3.0 0.00 0.00 0.00 98 1011.3
20260831021505 57 81 1.0 2.0 0.00 0.00 0.00 98 1011.4
20260831021006 57 82 2.0 2.0 0.00 0.00 0.00 98 1011.3
20260831020504 58 81 1.0 2.0 0.00 0.00 0.00 98 1011.4
20260831020026 58 79 1.0 2.0 0.00 0.00 0.00 98 1011.3
20260831015525 58 82 1.0 2.0 0.00 0.00 0.00 98 1011.5
20260831015025 58 86 2.0 3.0 0.00 0.00 0.00 98 1011.4
20260831014504 58 86 2.0 3.0 0.00 0.00 0.00 98 1011.5
20260831014005 58 84 1.0 3.0 0.00 0.00 0.00 98 1011.5
20260831013504 58 84 1.0 2.0 0.00 0.00 0.00 97 1011.3
20260831013006 58 82 1.0 2.0 0.00 0.00 0.00 97 1011.3
20260831012526 58 83 1.0 3.0 0.00 0.00 0.00 97 1011.5
20260831012025 58 87 1.0 3.0 0.00 0.00 0.00 97 1011.3
20260831011505 58 90 1.0 3.0 0.00 0.00 0.00 97 1011.3
20260831011004 58 63 1.0 3.0 0.00 0.00 0.00 97 1011.4
20260831010504 58 16 1.0 2.0 0.00 0.00 0.00 96 1011.2